Flag for U.S.A. Weather past 2 weeks in Lawrence, Kansas, U.S.A.

Now
38 °F

Clear.


Feels Like: 31 °F
Forecast: 43 / 67 °F
Wind: 10 mph from Southeast

Location: Lawrence Municipal Airport

Current Time: Mar 29, 2015 at 3:26:45 AM

Latest Report: Mar 29, 2015 at 2:52 AM


Visibility: 10 mi

Pressure: 30.00 "Hg

Humidity: 83%

Dew point: 33 °F

Location of LawrenceLocation

Historic Weather in Lawrence — Graph

°F

Lawrence temperature yesterday

Maximum temperature yesterday: 55 °F (at 3:52 PM)
Minimum temperature yesterday: 36 °F (at 7:52 AM)
Average temperature yesterday: 45 °F

Past Weeks' High & Low Weather Summary

 TemperatureHumidityPressure
High84 °F (Mar 16, 4:52 PM)100% (Mar 20, 4:52 AM)30.39 "Hg (Mar 20, 4:52 AM)
Low24 °F (Mar 15, 6:52 AM)17% (Mar 15, 3:52 PM)29.78 "Hg (Mar 24, 4:52 PM)
Average48 °F64%30.12 "Hg
* Reported Mar 14 1:52 AM — Mar 29 1:52 AM, Lawrence, Weather by CustomWeather, © 2015

Note: Actual official high and low records may vary slightly from our data, if they occured in-between our weather recording intervals... More about our weather records

Advertising

Lawrence weather history for previous 24 hours

 ConditionsComfort  
Time TempWeatherWind HumidityBarometerVisibility
1:52 AM
Sun, Mar 29
39 °FClear.16 mph79%30.00 "Hg10 mi
12:52 AM40 °FClear.14 mph73%30.04 "Hg10 mi
11:52 PM
Sat, Mar 28
41 °FClear.14 mph70%30.08 "Hg10 mi
10:52 PM42 °FClear.13 mph68%30.11 "Hg10 mi
9:52 PM45 °FClear.15 mph60%30.11 "Hg10 mi
8:52 PM46 °FClear.14 mph58%30.11 "Hg10 mi
7:52 PM48 °FSunny.13 mph54%30.10 "Hg10 mi
6:52 PM52 °FSunny.15 mph47%30.12 "Hg10 mi
5:52 PM54 °FSunny.15 mph43%30.11 "Hg10 mi
4:52 PM54 °FSunny.13 mph41%30.11 "Hg10 mi
3:52 PM55 °FSunny.16 mph40%30.11 "Hg10 mi
2:52 PM54 °FSunny.16 mph41%30.13 "Hg10 mi
1:52 PM53 °FSunny.16 mph41%30.15 "Hg10 mi
12:52 PM51 °FSunny.17 mph42%30.16 "Hg10 mi
11:52 AM49 °FSunny.16 mph46%30.16 "Hg10 mi
10:52 AM47 °FSunny.21 mph46%30.17 "Hg10 mi
9:52 AM44 °FSunny.16 mph51%30.16 "Hg10 mi
8:52 AM41 °FOvercast.13 mph55%30.16 "Hg10 mi
7:52 AM36 °FPassing clouds.12 mph67%30.15 "Hg10 mi
6:52 AM37 °FPassing clouds.12 mph62%30.14 "Hg10 mi
5:52 AM38 °FClear.13 mph63%30.11 "Hg10 mi
4:52 AM38 °FPassing clouds.10 mph63%30.10 "Hg10 mi
3:52 AM38 °FClear.7 mph60%30.09 "Hg10 mi
Weather by CustomWeather, © 2015

See weather overviewHow to use our weather pages